Norwood, MA

6:50 PM EDT on October 16, 2017 (GMT -0400)
Norwood Memorial

Weather History for KOWD - February, 2013

Change the Weather History Date:

Tuesday, February 19, 2013

  Actual Average Record
Temperature  
Mean Temperature 34 °F -  
Max Temperature 46 °F 37 °F 64 °F (1997)
Min Temperature 21 °F 20 °F 5 °F (2015)
Degree Days  
Heating Degree Days 32    
Moisture  
Dew Point 31 °F    
Average Humidity 77    
Maximum Humidity 100    
Minimum Humidity 35    
Precipitation  
Precipitation 0.35 in - - ()
Sea Level Pressure  
Sea Level Pressure 29.83 in    
Wind  
Wind Speed 4 mph (SSW)    
Max Wind Speed 13 mph    
Max Gust Speed 20 mph    
Visibility 7 miles    
Events Fog , Rain    
Averages and records for this station are not official NWS values.
T = Trace of Precipitation, MM = Missing Value Source: NWS Daily Summary

Daily Weather History Graph

Daily Weather History Graph

Search for Another Location

Airport or City:

Trip Planner

Search our weather history database for the weather conditions in past years. The results will help you decide how hot, cold, wet, or windy it might be!

Date:

Astronomy

Feb. 19, 2013 Rise Set
Actual Time 6:34 AM EST 5:22 PM EST
Civil Twilight 6:06 AM EST 5:51 PM EST
Nautical Twilight 5:33 AM EST 6:23 PM EST
Astronomical Twilight 5:01 AM EST 6:56 PM EST
Moon 11:48 AM EST (2/19) 2:07 AM EST (2/19)
Length of Visible Light 11h 44m
Length of Day
10h 47m
Waxing Gibbous, 67% of the Moon is Illuminated
Feb 19
Waxing Gibbous
Feb 25
Full
Mar 4
Last Quarter
Mar 11
New
Mar 19
First Quarter

Hourly Weather History & Observations

Time (EST) Temp. Windchill Dew Point Humidity Pressure Visibility Wind Dir Wind Speed Gust Speed Precip Events Conditions
12:53 AM 24.1 °F 19.7 °F -0.0 °F 35% 30.17 in 10.0 mi SW 3.5 mph - N/A   Clear
1:53 AM 25.0 °F 18.1 °F 1.9 °F 37% 30.17 in 10.0 mi WSW 5.8 mph - N/A   Clear
2:53 AM 25.0 °F 20.7 °F 3.9 °F 41% 30.16 in 10.0 mi SW 3.5 mph - N/A   Clear
3:53 AM 23.0 °F - 3.9 °F 44% 30.14 in 10.0 mi Calm Calm - N/A   Scattered Clouds
4:53 AM 21.9 °F - 9.0 °F 58% 30.14 in 10.0 mi Calm Calm - N/A   Overcast
5:53 AM 26.1 °F 21.9 °F 8.1 °F 47% 30.14 in 10.0 mi WSW 3.5 mph - N/A   Mostly Cloudy
7:53 AM 28.0 °F - 10.9 °F 49% 30.11 in 10.0 mi Calm Calm - N/A   Clear
8:53 AM 34.0 °F 26.6 °F 17.1 °F 50% 30.10 in 10.0 mi SW 9.2 mph - N/A   Clear
9:53 AM 39.0 °F 33.4 °F 23.0 °F 53% 30.08 in 10.0 mi SW 8.1 mph - N/A   Clear
10:53 AM 42.1 °F 37.1 °F 27.0 °F 55% 30.06 in 10.0 mi SSW 8.1 mph - N/A   Clear
11:53 AM 45.0 °F 40.1 °F 28.0 °F 52% 30.02 in 10.0 mi South 9.2 mph - N/A   Clear
1:53 PM 46.9 °F - 30.0 °F 52% 29.94 in 10.0 mi South 12.7 mph 19.6 mph N/A   Clear
2:53 PM 46.0 °F 41.4 °F 30.9 °F 56% 29.91 in 10.0 mi South 9.2 mph 17.3 mph N/A   Clear
3:53 PM 46.0 °F 41.4 °F 35.1 °F 66% 29.86 in 10.0 mi South 9.2 mph - N/A   Mostly Cloudy
4:53 PM 45.0 °F 40.1 °F 39.0 °F 80% 29.83 in 10.0 mi South 9.2 mph 18.4 mph 0.00 in Rain Light Rain
5:53 PM 44.1 °F 40.8 °F 41.0 °F 89% 29.79 in 10.0 mi SSE 5.8 mph - 0.00 in   Overcast
6:26 PM 42.8 °F 41.1 °F 41.0 °F 93% 29.76 in 5.0 mi SSE 3.5 mph - 0.01 in Rain Light Rain
6:33 PM 42.8 °F 41.1 °F 42.8 °F 100% 29.76 in 5.0 mi SSE 3.5 mph - 0.01 in Rain Light Rain
7:30 PM 42.8 °F 41.1 °F 42.8 °F 100% 29.73 in 5.0 mi SE 3.5 mph - 0.07 in Rain Light Rain
7:53 PM 43.0 °F 38.8 °F 43.0 °F 100% 29.71 in 4.0 mi SE 6.9 mph - 0.12 in Rain Light Rain
8:53 PM 44.1 °F 40.8 °F 43.0 °F 96% 29.63 in 8.0 mi SE 5.8 mph - 0.09 in Rain Light Rain
9:00 PM 44.6 °F - 42.8 °F 93% 29.62 in 4.0 mi Calm Calm - 0.00 in Rain Light Rain
9:37 PM 42.8 °F 40.1 °F 42.8 °F 100% 29.63 in 2.5 mi West 4.6 mph - 0.07 in Rain Rain
9:45 PM 44.6 °F 43.1 °F 44.6 °F 100% 29.62 in 3.0 mi SW 3.5 mph - 0.09 in Rain Light Rain
9:53 PM 44.1 °F 42.5 °F 44.1 °F 100% 29.62 in 5.0 mi SW 3.5 mph - 0.10 in Rain Light Rain
10:00 PM 42.8 °F - 42.8 °F 100% 29.62 in 5.0 mi Calm Calm - 0.00 in Rain Light Rain
10:08 PM 44.6 °F 42.2 °F 44.6 °F 100% 29.63 in 6.0 mi SW 4.6 mph - 0.01 in Rain Light Rain
10:49 PM 41.0 °F - 41.0 °F 100% 29.59 in 1.5 mi Calm Calm - 0.03 in Rain Light Rain
10:53 PM 41.0 °F - 39.9 °F 96% 29.59 in 0.5 mi Calm Calm - 0.03 in Fog Fog
11:09 PM 41.0 °F - 41.0 °F 100% 29.59 in 0.5 mi Calm Calm - 0.01 in Fog , Rain Light Rain
11:28 PM 41.0 °F 38.0 °F 41.0 °F 100% 29.60 in 2.5 mi SW 4.6 mph - 0.01 in   Overcast
11:35 PM 42.8 °F 40.1 °F 42.8 °F 100% 29.59 in 6.0 mi WSW 4.6 mph - 0.01 in Rain Light Rain
11:53 PM 42.1 °F 38.4 °F 42.1 °F 100% 29.58 in 10.0 mi West 5.8 mph - 0.01 in   Overcast